Location: Grand Mazuras
(45.9128°N, 1.7636°E)
Time: 04:37:55
(UTC+00:00)

Lacrosse 5 rocket - Pass Details

Date: 18 April 2021
Orbit: 460 x 634 km, 57.0° (Epoch: 10 May)

Event Time Altitude Azimuth Distance (km) Brightness Sun altitude
Rises 22:44:08 0° 309° (NW) 2,779 5.7 -30.9°
Reaches altitude 10° 22:46:36 10° 322° (NW) 1,910 4.9 -31.0°
Enters shadow 22:49:53 27° 10° (N) 1,159 3.4 -31.2°
